period_start,C,m1,H,J0,J1,J2,J3,J4,J5,JA,JB,JC,JD,JJ,JK,JN,#
2016-10-20 00:04:10,0.01,1.24,0.00,23.44,28.65,32.03,14.75,44.81,1026.44,2025.23,3008.75,2788.03,3152.16,600.09,600.99,53.18,0000 0000 0000 0000 000000
2016-10-20 00:09:12,0.01,1.24,0.00,23.39,28.64,32.11,14.78,44.76,1026.48,2025.29,3008.41,2788.01,3152.06,600.29,601.33,53.23,0000 0000 0000 0000 000000
2016-10-20 00:14:13,0.01,1.24,0.00,23.39,28.62,32.07,14.57,44.51,1026.56,2025.31,3008.07,2788.00,3152.02,600.03,601.08,53.28,0000 0000 0000 0000 000000
2016-10-20 00:19:14,-0.01,1.24,0.00,23.37,28.62,32.01,14.66,44.67,1026.57,2025.26,3008.00,2788.00,3152.00,600.09,601.20,53.33,0000 0000 0000 0000 000000
2016-10-20 00:24:15,0.02,1.24,0.00,23.43,28.62,31.92,14.62,44.71,1026.69,2025.37,3008.00,2788.00,3152.00,600.03,600.98,53.38,0000 0000 0000 0000 000000
2016-10-20 00:29:17,-0.00,1.24,0.00,23.45,28.62,31.89,14.66,44.47,1026.72,2025.38,3007.99,2787.99,3152.00,600.33,601.25,53.43,0000 0000 0000 0000 000000
2016-10-20 00:34:18,0.00,1.24,0.00,23.42,28.60,31.92,14.64,44.76,1026.61,2025.36,3007.99,2787.97,3151.98,599.74,600.76,53.48,0000 0000 0000 0000 000000
2016-10-20 00:39:19,0.01,1.24,0.00,23.42,28.60,31.89,14.61,44.70,1026.61,2025.35,3007.98,2787.97,3151.97,599.93,601.07,53.53,0000 0000 0000 0000 000000
2016-10-20 00:44:20,-0.01,1.24,0.00,23.48,28.60,31.81,14.56,44.47,1026.46,2025.31,3007.98,2787.87,3151.91,599.47,600.31,53.58,0000 0000 0000 0000 000000
2016-10-20 00:49:21,-0.00,1.24,0.00,23.44,28.60,31.78,14.61,44.48,1026.47,2025.18,3007.97,2787.73,3151.66,599.94,600.83,53.63,0000 0000 0000 0000 000000
2016-10-20 00:54:22,0.02,1.24,0.00,23.44,28.60,31.79,14.67,44.56,1026.43,2025.09,3007.76,2787.26,3151.21,600.34,601.30,53.68,0000 0000 0000 0000 000000
2016-10-20 00:59:23,0.01,1.24,0.00,23.43,28.60,31.79,14.67,44.58,1026.42,2025.06,3007.12,2787.02,3151.02,599.82,600.63,53.73,0000 0000 0000 0000 000000
2016-10-20 01:04:25,-0.00,1.24,0.00,23.45,28.60,31.80,14.63,44.47,1026.42,2025.02,3007.00,2787.00,3151.00,599.95,600.82,53.78,0000 0000 0000 0000 000000
2016-10-20 01:09:26,0.00,1.24,0.00,23.38,28.60,31.91,14.64,44.62,1026.44,2025.02,3007.00,2787.00,3150.99,599.76,600.96,53.83,0000 0000 0000 0000 000000
2016-10-20 01:14:28,0.00,1.24,0.00,23.28,28.59,32.09,14.61,44.29,1026.49,2025.07,3006.99,2787.00,3150.99,599.62,600.83,53.88,0000 0000 0000 0000 000000
2016-10-20 01:19:29,0.01,1.25,0.00,23.26,28.57,32.05,14.71,44.46,1026.51,2025.19,3006.98,2787.00,3150.99,600.23,601.51,53.93,0000 0000 0000 0000 000000
2016-10-20 01:24:30,0.00,1.25,0.00,23.27,28.57,32.07,14.64,44.50,1026.47,2025.25,3006.94,2787.00,3150.98,599.84,601.08,53.98,0000 0000 0000 0000 000000
2016-10-20 01:29:32,0.02,1.25,0.00,23.26,28.56,32.00,14.69,44.52,1026.51,2025.26,3006.49,2786.98,3150.91,599.91,601.04,54.04,0000 0000 0000 0000 000000
2016-10-20 01:34:34,0.04,1.25,0.00,23.26,28.55,32.00,14.64,44.27,1026.63,2025.54,3006.17,2786.95,3150.71,600.05,601.36,54.09,0000 0000 0000 0000 000000
2016-10-20 01:39:35,0.00,1.25,0.00,23.24,28.55,31.99,14.64,44.34,1026.79,2025.43,3006.02,2786.72,3150.18,599.72,601.24,54.14,0000 0000 0000 0000 000000
2016-10-20 01:44:36,0.02,1.25,0.00,23.27,28.53,32.00,14.66,44.32,1026.73,2025.58,3006.00,2786.34,3150.02,600.01,601.47,54.19,0000 0000 0000 0000 000000
2016-10-20 01:49:37,0.00,1.25,0.00,23.22,28.52,32.01,14.70,44.67,1026.75,2025.59,3005.99,2786.05,3150.00,599.95,601.44,54.24,0000 0000 0000 0000 000000
2016-10-20 01:54:38,-0.00,1.25,0.00,23.20,28.52,32.00,14.67,44.55,1026.85,2025.49,3005.97,2786.00,3150.00,599.94,601.45,54.29,0000 0000 0000 0000 000000
2016-10-20 01:59:40,0.02,1.25,0.00,23.18,28.51,32.00,14.63,44.44,1026.87,2025.55,3005.86,2786.00,3149.98,600.01,601.68,54.34,0000 0000 0000 0000 000000
2016-10-20 02:04:41,0.02,1.25,0.00,23.12,28.50,31.97,14.64,44.56,1026.87,2025.69,3005.71,2786.00,3149.98,600.07,601.81,54.39,0000 0000 0000 0000 000000
2016-10-20 02:09:42,0.00,1.25,0.00,23.05,28.50,31.96,14.70,44.76,1026.88,2025.71,3005.19,2786.00,3149.85,599.77,601.75,54.44,0000 0000 0000 0000 000000
2016-10-20 02:14:43,0.01,1.25,0.00,23.05,28.48,31.94,14.68,44.88,1026.88,2025.75,3005.05,2785.98,3149.75,599.88,601.89,54.49,0000 0000 0000 0000 000000
2016-10-20 02:19:45,0.01,1.25,0.00,23.02,28.47,31.94,14.65,44.82,1026.89,2025.74,3005.00,2785.97,3149.36,600.00,601.99,54.54,0000 0000 0000 0000 000000
2016-10-20 02:24:46,0.01,1.25,0.00,23.05,28.46,31.95,14.70,44.93,1026.88,2025.94,3005.00,2785.98,3149.29,600.16,602.10,54.59,0000 0000 0000 0000 000000
2016-10-20 02:29:47,0.00,1.25,0.00,23.04,28.45,31.91,14.62,44.79,1026.88,2025.92,3005.00,2785.92,3149.09,599.65,601.79,54.64,0000 0000 0000 0000 000000
2016-10-20 02:34:48,0.00,1.25,0.00,22.98,28.44,31.90,14.71,44.96,1026.88,2025.95,3004.98,2785.91,3149.03,600.12,602.21,54.69,0000 0000 0000 0000 000000
2016-10-20 02:39:50,-0.00,1.25,0.00,23.00,28.42,31.92,14.69,44.73,1026.88,2025.94,3004.99,2785.81,3149.03,600.54,602.50,54.74,0000 0000 0000 0000 000000
2016-10-20 02:44:51,-0.00,1.25,0.00,23.10,28.42,31.86,14.66,44.77,1026.89,2025.95,3004.99,2785.88,3149.04,599.95,601.79,54.79,0000 0000 0000 0000 000000
2016-10-20 02:49:52,0.02,1.25,0.00,23.27,28.42,31.75,14.68,44.69,1026.89,2025.97,3004.98,2785.57,3149.00,600.18,601.69,54.84,0000 0000 0000 0000 000000
2016-10-20 02:54:54,-0.00,1.25,0.00,23.23,28.41,31.70,14.67,44.88,1026.88,2025.94,3004.97,2785.28,3149.00,599.90,601.52,54.89,0000 0000 0000 0000 000000
2016-10-20 02:59:55,0.01,1.26,0.00,23.29,28.42,31.67,14.65,44.94,1026.88,2025.97,3004.96,2785.20,3149.00,600.07,601.60,54.94,0000 0000 0000 0000 000000
2016-10-20 03:04:56,0.00,1.26,0.00,23.27,28.42,31.70,14.64,44.76,1026.89,2025.96,3004.91,2785.09,3149.00,599.98,601.66,55.00,0000 0000 0000 0000 000000
2016-10-20 03:09:58,0.00,1.26,0.00,23.30,28.42,31.69,14.60,44.80,1027.06,2025.98,3004.82,2785.05,3149.00,599.96,601.48,55.05,0000 0000 0000 0000 000000
2016-10-20 03:14:59,0.01,1.26,0.00,23.31,28.42,31.69,14.73,44.89,1027.26,2025.96,3004.39,2785.01,3148.99,600.01,601.65,55.10,0000 0000 0000 0000 000000
2016-10-20 03:20:01,0.00,1.26,0.00,23.39,28.42,31.70,14.63,44.81,1027.30,2025.90,3004.07,2785.00,3148.92,599.88,601.31,55.15,0000 0000 0000 0000 000000
2016-10-20 03:25:02,0.00,1.26,0.00,23.37,28.44,31.70,14.64,44.95,1027.21,2025.89,3004.01,2785.00,3148.71,599.90,601.36,55.20,0000 0000 0000 0000 000000
2016-10-20 03:30:04,-0.01,1.26,0.00,23.35,28.45,31.71,14.67,44.83,1027.30,2025.72,3004.00,2785.00,3148.35,600.05,601.56,55.25,0000 0000 0000 0000 000000
2016-10-20 03:35:05,0.01,1.26,0.00,23.33,28.45,31.78,14.67,44.91,1027.08,2025.69,3004.00,2784.99,3148.11,599.83,601.30,55.30,0000 0000 0000 0000 000000
2016-10-20 03:40:06,-0.00,1.26,0.00,23.36,28.45,31.76,14.70,44.95,1027.16,2025.75,3004.00,2784.98,3148.09,599.88,601.36,55.35,0000 0000 0000 0000 000000
2016-10-20 03:45:08,-0.03,1.25,0.00,23.35,28.45,31.84,14.64,44.97,1027.29,2025.41,3003.98,2784.91,3148.01,599.97,601.48,55.40,0000 0000 0000 0000 000000
2016-10-20 03:50:09,0.00,1.25,0.00,23.40,28.46,31.79,14.73,44.79,1027.33,2025.36,3003.93,2784.76,3148.00,600.41,601.90,55.45,0000 0000 0000 0000 000000
2016-10-20 03:55:11,0.00,1.25,0.00,23.44,28.47,31.74,14.64,44.82,1027.30,2025.11,3003.63,2784.19,3147.97,599.79,601.25,55.50,0000 0000 0000 0000 000000
2016-10-20 04:00:12,0.00,1.26,0.00,23.44,28.47,31.73,14.68,44.82,1027.34,2025.07,3003.25,2784.04,3147.96,600.09,601.48,55.55,0000 0000 0000 0000 000000
2016-10-20 04:05:13,0.00,1.26,0.00,23.41,28.47,31.75,14.61,44.93,1027.35,2025.05,3003.08,2784.01,3147.89,599.98,601.56,55.60,0000 0000 0000 0000 000000
2016-10-20 04:10:14,0.01,1.26,0.00,23.36,28.48,31.76,14.60,44.78,1027.34,2025.02,3003.01,2784.01,3147.55,599.56,601.15,55.65,0000 0000 0000 0000 000000
2016-10-20 04:15:16,0.00,1.26,0.00,23.37,28.49,31.77,14.71,44.68,1027.19,2025.01,3003.00,2784.00,3147.11,600.32,601.79,55.70,0000 0000 0000 0000 000000
2016-10-20 04:20:17,0.00,1.26,0.00,23.41,28.50,31.75,14.67,44.91,1026.94,2025.00,3003.00,2784.00,3147.01,600.01,601.30,55.75,0000 0000 0000 0000 000000
2016-10-20 04:25:18,0.00,1.26,0.00,23.37,28.50,31.76,14.68,44.92,1027.01,2025.00,3002.99,2784.00,3147.01,600.09,601.42,55.80,0000 0000 0000 0000 000000
2016-10-20 04:30:19,0.01,1.26,0.00,23.36,28.50,31.78,14.71,45.04,1027.17,2025.00,3002.62,2783.95,3146.99,600.35,601.71,55.85,0000 0000 0000 0000 000000
2016-10-20 04:35:20,0.01,1.26,0.00,23.27,28.49,31.99,14.72,44.94,1027.25,2025.00,3002.12,2783.76,3146.98,600.03,601.79,55.90,0000 0000 0000 0000 000000
2016-10-20 04:40:22,0.01,1.26,0.00,23.24,28.48,32.06,14.76,45.11,1027.28,2025.00,3002.01,2783.24,3146.92,600.17,601.87,55.96,0000 0000 0000 0000 000000
2016-10-20 04:45:23,0.00,1.26,0.00,23.19,28.47,32.06,14.73,45.11,1027.00,2025.00,3001.98,2783.11,3146.87,599.81,601.68,56.01,0000 0000 0000 0000 000000
2016-10-20 04:50:24,0.01,1.26,0.00,23.14,28.47,32.03,14.72,45.05,1026.95,2025.01,3001.97,2783.06,3146.63,599.65,601.37,56.06,0000 0000 0000 0000 000000
2016-10-20 04:55:26,-0.00,1.26,0.00,23.16,28.45,32.00,14.71,44.91,1027.02,2025.00,3001.97,2783.05,3146.52,599.91,601.73,56.11,0000 0000 0000 0000 000000
2016-10-20 05:00:27,0.01,1.26,0.00,23.06,28.45,31.96,14.73,45.02,1027.08,2025.01,3001.84,2783.05,3146.29,600.09,602.26,56.16,0000 0000 0000 0000 000000
2016-10-20 05:05:29,0.00,1.26,0.00,22.99,28.43,31.77,14.70,44.93,1026.98,2025.01,3001.82,2783.01,3146.11,600.20,602.35,56.21,0000 0000 0000 0000 000000
2016-10-20 05:10:30,0.00,1.26,0.00,22.95,28.42,31.75,14.68,44.81,1027.06,2025.00,3001.88,2783.02,3146.10,599.43,601.71,56.26,0000 0000 0000 0000 000000
2016-10-20 05:15:31,0.00,1.26,0.00,22.94,28.40,31.74,14.78,44.65,1026.96,2025.01,3001.80,2783.04,3146.18,600.02,602.31,56.31,0000 0000 0000 0000 000000
2016-10-20 05:20:32,0.01,1.26,0.00,22.90,28.39,31.65,14.74,44.98,1026.97,2025.04,3001.74,2783.05,3146.30,600.50,602.79,56.36,0000 0000 0000 0000 000000
2016-10-20 05:25:34,0.02,1.26,0.00,22.91,28.37,31.64,14.71,44.80,1026.92,2025.15,3001.31,2783.08,3146.42,599.84,602.03,56.41,0000 0000 0000 0000 000000
2016-10-20 05:30:35,0.03,1.26,0.00,22.85,28.36,31.59,14.78,44.74,1026.96,2025.60,3001.53,2783.26,3146.76,600.00,602.40,56.46,0000 0000 0000 0000 000000
2016-10-20 05:35:36,0.01,1.26,0.00,22.84,28.35,31.66,14.69,44.84,1027.02,2025.69,3001.31,2783.21,3146.73,599.92,602.41,56.51,0000 0000 0000 0000 000000
2016-10-20 05:40:37,0.01,1.26,0.00,22.81,28.33,31.61,14.68,44.65,1027.10,2025.88,3001.37,2783.23,3146.84,599.62,602.23,56.56,0000 0000 0000 0000 000000
2016-10-20 05:45:39,-0.00,1.26,0.00,22.79,28.32,31.62,14.73,44.63,1027.23,2025.92,3001.20,2783.31,3146.82,600.49,603.14,56.61,0000 0000 0000 0000 000000
2016-10-20 05:50:40,0.00,1.26,0.00,22.76,28.30,31.62,14.78,44.58,1027.30,2025.97,3001.18,2783.38,3146.87,600.33,603.11,56.66,0000 0000 0000 0000 000000
2016-10-20 05:55:41,-0.01,1.26,0.00,22.79,28.29,31.65,14.72,44.46,1027.32,2025.98,3001.36,2783.61,3146.95,600.33,603.14,56.71,0000 0000 0000 0000 000000
2016-10-20 06:00:43,0.01,1.26,0.00,22.78,28.27,31.62,14.63,44.38,1027.34,2025.99,3001.19,2783.62,3146.95,599.82,602.55,56.76,0000 0000 0000 0000 000000
2016-10-20 06:05:44,0.03,1.26,0.00,22.75,28.26,31.67,14.74,44.57,1027.36,2025.99,3001.07,2783.21,3146.69,600.12,602.93,56.81,0000 0000 0000 0000 000000
2016-10-20 06:10:46,-0.01,1.26,0.00,22.76,28.25,31.69,14.74,44.88,1027.35,2025.99,3000.98,2783.28,3146.04,599.99,602.79,56.86,0000 0000 0000 0000 000000
2016-10-20 06:15:47,0.00,1.26,0.00,22.68,28.23,31.64,14.72,44.90,1027.35,2025.99,3000.98,2783.19,3146.00,599.83,602.84,56.91,0000 0000 0000 0000 000000
2016-10-20 06:20:48,-0.01,1.26,0.00,22.64,28.22,31.58,14.81,45.14,1027.36,2025.99,3000.98,2783.50,3146.02,600.55,603.67,56.97,0000 0000 0000 0000 000000
2016-10-20 06:25:49,-0.01,1.26,0.00,22.66,28.20,31.65,14.78,45.11,1027.36,2025.99,3000.99,2783.88,3146.06,600.15,603.05,57.02,0000 0000 0000 0000 000000
2016-10-20 06:30:50,0.00,1.26,0.00,22.66,28.19,31.65,14.71,45.13,1027.36,2025.99,3000.91,2783.89,3146.04,599.80,602.89,57.07,0000 0000 0000 0000 000000
2016-10-20 06:35:51,-0.00,1.26,0.00,22.66,28.17,31.64,14.65,44.93,1027.35,2026.00,3000.97,2783.97,3146.11,599.72,602.71,57.12,0000 0000 0000 0000 000000
2016-10-20 06:40:53,-0.00,1.26,0.00,22.64,28.16,31.66,14.80,45.05,1027.35,2026.01,3000.97,2783.96,3146.16,600.05,603.14,57.17,0000 0000 0000 0000 000000
2016-10-20 06:45:54,0.00,1.26,0.00,22.62,28.15,31.68,14.63,45.03,1027.36,2026.08,3000.95,2783.97,3146.44,599.85,602.96,57.22,0000 0000 0000 0000 000000
2016-10-20 06:50:55,0.01,1.26,0.00,22.58,28.13,31.67,14.66,44.91,1027.36,2026.25,3000.97,2783.99,3146.79,599.66,602.84,57.27,0000 0000 0000 0000 000000
2016-10-20 06:55:57,0.01,1.26,0.00,22.53,28.11,31.55,14.75,45.06,1027.35,2026.35,3000.96,2783.99,3146.71,600.00,603.22,57.32,0000 0000 0000 0000 000000
2016-10-20 07:00:58,0.03,1.27,0.00,22.43,28.10,31.51,14.74,45.11,1027.36,2026.75,3000.96,2783.99,3146.91,600.03,603.60,57.37,0000 0000 0000 0000 000000
2016-10-20 07:05:59,0.01,1.27,0.00,22.43,28.07,31.51,14.73,45.16,1027.36,2026.94,3000.92,2783.99,3146.94,600.00,603.57,57.42,0000 0000 0000 0000 000000
2016-10-20 07:11:00,0.00,1.27,0.00,22.45,28.06,31.51,14.74,45.08,1027.36,2026.97,3000.92,2783.99,3146.97,600.04,603.51,57.47,0000 0000 0000 0000 000000
2016-10-20 07:16:02,0.00,1.27,0.00,22.40,28.05,31.44,14.67,45.02,1027.36,2026.98,3000.90,2783.99,3146.98,599.95,603.55,57.52,0000 0000 0000 0000 000000
2016-10-20 07:21:03,0.00,1.27,0.00,22.34,28.02,31.37,14.77,45.12,1027.36,2026.99,3000.71,2783.99,3146.97,600.23,603.82,57.57,0000 0000 0000 0000 000000
2016-10-20 07:26:04,0.00,1.27,0.00,22.30,28.01,31.32,14.79,45.08,1027.36,2026.99,3000.38,2783.99,3146.96,600.00,603.82,57.62,0000 0000 0000 0000 000000
2016-10-20 07:31:05,0.00,1.27,0.00,22.28,27.99,31.33,14.70,44.98,1027.37,2026.99,3000.25,2783.99,3146.96,599.70,603.43,57.67,0000 0000 0000 0000 000000
2016-10-20 07:36:06,0.00,1.27,0.00,22.32,27.97,31.38,14.83,45.22,1027.36,2026.99,3000.18,2783.99,3146.94,600.10,603.87,57.72,0000 0000 0000 0000 000000
2016-10-20 07:41:07,0.00,1.27,0.00,22.30,27.95,31.44,14.76,45.08,1027.36,2027.00,3000.04,2783.99,3146.95,600.02,603.83,57.77,0000 0000 0000 0000 000000
2016-10-20 07:46:09,0.00,1.27,0.00,22.23,27.92,31.42,14.77,45.18,1027.36,2027.02,3000.02,2783.99,3146.98,599.85,603.72,57.83,0000 0000 0000 0000 000000
2016-10-20 07:51:10,0.01,1.27,0.00,22.19,27.90,31.38,14.83,45.19,1027.36,2027.13,3000.03,2783.99,3146.99,600.15,604.13,57.88,0000 0000 0000 0000 000000
2016-10-20 07:56:11,0.03,1.27,0.00,22.18,27.88,31.38,14.82,45.23,1027.37,2027.50,3000.07,2784.01,3146.99,600.14,604.12,57.93,0000 0000 0000 0000 000000
2016-10-20 08:01:12,0.03,1.27,0.00,22.17,27.86,31.36,14.85,45.27,1027.36,2027.74,3000.10,2784.00,3146.99,599.93,603.95,57.98,0000 0000 0000 0000 000000
2016-10-20 08:06:13,0.00,1.27,0.00,22.12,27.84,31.35,14.75,45.14,1027.37,2027.97,3000.46,2784.11,3147.01,600.09,604.17,58.03,0000 0000 0000 0000 000000
2016-10-20 08:11:14,-0.00,1.27,0.00,22.09,27.81,31.31,14.74,45.23,1027.37,2027.98,3000.46,2784.18,3147.01,600.11,604.32,58.08,0000 0000 0000 0000 000000
2016-10-20 08:16:16,-0.02,1.27,0.00,22.07,27.79,31.29,14.80,45.16,1027.38,2027.99,3000.64,2784.43,3147.07,599.97,604.14,58.13,0000 0000 0000 0000 000000
2016-10-20 08:21:17,-0.00,1.27,0.00,22.03,27.76,31.23,14.72,45.30,1027.38,2027.99,3000.44,2784.65,3147.17,599.89,604.15,58.18,0000 0000 0000 0000 000000
2016-10-20 08:26:19,-0.01,1.27,0.00,21.96,27.74,31.16,14.83,45.23,1027.37,2027.99,3000.38,2784.91,3147.45,600.16,604.66,58.23,0000 0000 0000 0000 000000
2016-10-20 08:31:20,0.01,1.27,0.00,21.93,27.72,31.08,14.72,45.14,1027.37,2028.01,3000.24,2784.89,3147.42,599.95,604.62,58.28,0000 0000 0000 0000 000000
2016-10-20 08:36:21,-0.01,1.27,0.00,21.94,27.70,30.94,14.75,45.18,1027.37,2028.03,3000.51,2784.97,3147.90,600.08,604.62,58.33,0000 0000 0000 0000 000000
2016-10-20 08:41:22,0.02,1.27,0.00,21.89,27.67,30.93,14.84,45.39,1027.38,2028.15,3000.79,2784.99,3147.97,600.03,604.58,58.38,0000 0000 0000 0000 000000
2016-10-20 08:46:24,0.02,1.27,0.00,21.86,27.64,30.95,14.75,45.14,1027.39,2028.42,3000.84,2784.99,3147.98,599.85,604.55,58.43,0000 0000 0000 0000 000000
2016-10-20 08:51:25,0.03,1.27,0.00,21.87,27.62,30.92,14.67,45.18,1027.40,2028.86,3000.93,2784.99,3147.99,599.76,604.43,58.48,0000 0000 0000 0000 000000
2016-10-20 08:56:26,0.00,1.27,0.00,21.87,27.60,30.93,14.75,45.23,1027.38,2028.98,3000.95,2785.00,3147.99,599.89,604.60,58.53,0000 0000 0000 0000 000000
2016-10-20 09:01:27,0.00,1.27,0.00,21.80,27.57,30.93,14.84,45.28,1027.38,2028.99,3000.96,2785.03,3148.01,600.21,605.10,58.58,0000 0000 0000 0000 000000
2016-10-20 09:06:28,-0.00,1.27,0.00,21.77,27.54,30.84,14.76,45.32,1027.43,2028.99,3000.98,2785.08,3148.03,600.03,604.84,58.63,0000 0000 0000 0000 000000
2016-10-20 09:11:29,-0.02,1.27,0.00,21.76,27.51,30.77,14.74,45.37,1027.46,2028.99,3000.99,2785.49,3148.29,599.93,604.86,58.68,0000 0000 0000 0000 000000
2016-10-20 09:16:31,-0.01,1.27,0.00,21.69,27.49,30.69,14.79,45.37,1027.40,2029.03,3000.99,2785.89,3148.85,599.92,604.92,58.73,0000 0000 0000 0000 000000
2016-10-20 09:21:32,0.00,1.27,0.00,21.71,27.46,30.78,14.79,45.30,1027.43,2029.07,3000.99,2785.96,3148.94,600.05,605.07,58.78,0000 0000 0000 0000 000000
2016-10-20 09:26:33,0.01,1.27,0.00,21.70,27.44,30.66,14.85,45.18,1027.64,2029.21,3000.99,2785.97,3148.95,600.09,605.29,58.84,0000 0000 0000 0000 000000
2016-10-20 09:31:34,0.06,1.28,0.00,21.62,27.41,30.67,14.87,45.29,1027.72,2029.83,3001.03,2785.99,3148.99,599.84,605.19,58.89,0000 0000 0000 0000 000000
2016-10-20 09:36:35,0.00,1.28,0.00,21.61,27.38,30.71,14.77,45.48,1027.50,2029.97,3001.06,2786.00,3149.01,600.04,605.38,58.94,0000 0000 0000 0000 000000
2016-10-20 09:41:36,0.00,1.28,0.00,21.56,27.35,30.62,14.84,45.48,1027.43,2029.99,3001.05,2786.01,3149.02,600.41,605.69,58.99,0000 0000 0000 0000 000000
2016-10-20 09:46:37,0.00,1.28,0.00,21.56,27.32,30.51,14.83,45.34,1027.42,2029.99,3001.12,2786.02,3149.07,600.12,605.55,59.04,0000 0000 0000 0000 000000
2016-10-20 09:51:39,-0.01,1.28,0.00,21.52,27.30,30.60,14.83,45.48,1027.49,2029.99,3001.27,2786.09,3149.21,599.99,605.39,59.09,0000 0000 0000 0000 000000
2016-10-20 09:56:40,-0.03,1.28,0.00,21.48,27.27,30.60,14.79,45.40,1027.41,2029.99,3001.73,2786.48,3149.67,600.38,605.85,59.14,0000 0000 0000 0000 000000
2016-10-20 10:01:41,-0.01,1.27,0.00,21.48,27.24,30.51,14.85,45.32,1027.40,2030.04,3001.96,2786.88,3149.97,600.06,605.42,59.19,0000 0000 0000 0000 000000
2016-10-20 10:06:42,0.00,1.27,0.00,21.48,27.21,30.53,14.78,45.33,1027.40,2030.10,3001.98,2786.95,3149.98,600.00,605.51,59.24,0000 0000 0000 0000 000000
2016-10-20 10:11:43,0.03,1.28,0.00,21.45,27.19,30.51,14.83,45.09,1027.39,2030.41,3001.98,2786.98,3149.99,600.24,605.73,59.29,0000 0000 0000 0000 000000
2016-10-20 10:16:45,0.04,1.28,0.00,21.44,27.16,30.45,14.82,45.54,1027.38,2030.81,3001.98,2786.99,3149.99,600.03,605.65,59.34,0000 0000 0000 0000 000000
2016-10-20 10:21:46,0.00,1.28,0.00,21.38,27.13,30.44,14.67,45.31,1027.41,2030.96,3001.96,2786.99,3150.00,599.45,605.04,59.39,0000 0000 0000 0000 000000
2016-10-20 10:26:48,0.00,1.28,0.00,21.39,27.11,30.31,14.78,45.25,1027.39,2030.98,3001.99,2786.99,3150.00,599.95,605.64,59.44,0000 0000 0000 0000 000000
2016-10-20 10:31:49,0.00,1.28,0.00,21.36,27.08,30.33,14.74,45.42,1027.37,2030.99,3001.99,2787.00,3150.02,599.30,605.06,59.49,0000 0000 0000 0000 000000
2016-10-20 10:36:51,-0.01,1.28,0.00,21.36,27.06,30.31,14.86,44.92,1027.39,2031.00,3001.99,2787.13,3150.38,600.26,605.97,59.54,0000 0000 0000 0000 000000
2016-10-20 10:41:52,-0.01,1.28,0.00,21.33,27.03,30.24,14.87,44.96,1027.41,2031.04,3002.03,2787.43,3150.84,600.56,606.15,59.59,0000 0000 0000 0000 000000
2016-10-20 10:46:53,-0.00,1.28,0.00,21.29,27.01,30.26,14.72,44.79,1027.46,2031.09,3002.05,2787.67,3150.93,599.89,605.58,59.64,0000 0000 0000 0000 000000
2016-10-20 10:51:54,0.02,1.28,0.00,21.32,26.99,30.29,14.72,45.23,1027.43,2031.30,3002.07,2787.90,3150.98,599.73,605.61,59.69,0000 0000 0000 0000 000000
2016-10-20 10:56:56,0.02,1.28,0.00,21.28,26.96,30.21,14.84,45.17,1027.37,2031.67,3002.03,2787.95,3150.98,600.15,605.95,59.74,0000 0000 0000 0000 000000
2016-10-20 11:01:57,0.08,0.34,0.00,21.25,26.95,30.17,12.99,40.46,1027.39,2032.70,3401.96,3056.09,3463.78,530.58,536.11,0.00,0000 0000 0000 0000 000000
2016-10-20 11:06:58,0.08,0.00,0.00,21.25,26.92,30.17,14.84,46.29,1027.39,2032.99,3544.31,3152.99,3577.23,600.48,606.42,0.05,0000 0000 0000 0000 000000
2016-10-20 11:12:00,0.07,0.00,0.00,21.20,26.90,30.18,14.81,46.23,1027.38,2032.99,3543.92,3152.97,3577.00,600.23,606.25,0.10,0000 0000 0000 0000 000000
2016-10-20 11:17:01,0.06,0.00,0.00,21.17,26.88,30.26,14.84,46.45,1027.38,2032.99,3543.19,3152.89,3577.00,600.18,606.29,0.15,0000 0000 0000 0000 000000
2016-10-20 11:22:02,0.03,0.00,0.00,21.13,26.86,30.19,14.87,46.67,1027.38,2033.00,3543.00,3152.91,3576.99,600.22,606.31,0.20,0000 0000 0000 0000 000000
2016-10-20 11:27:04,0.01,0.00,0.00,21.09,26.85,30.13,14.81,46.74,1027.37,2033.04,3543.00,3152.96,3576.98,600.01,606.30,0.25,0000 0000 0000 0000 000000
2016-10-20 11:32:05,0.00,0.00,0.00,21.08,26.82,30.20,14.83,47.14,1027.37,2033.04,3542.94,3152.93,3576.98,599.61,605.87,0.30,0000 0000 0000 0000 000000
2016-10-20 11:37:06,-0.02,0.00,0.00,21.10,26.80,30.12,14.82,47.02,1027.38,2033.13,3542.97,3152.97,3576.91,599.84,606.05,0.35,0000 0000 0000 0000 000000
2016-10-20 11:42:08,0.03,0.00,0.00,21.10,26.78,30.07,14.83,46.88,1027.39,2033.38,3542.98,3152.99,3576.93,599.93,606.21,0.40,0000 0000 0000 0000 000000
2016-10-20 11:47:09,0.02,0.00,0.00,21.07,26.76,29.97,14.85,46.98,1027.36,2033.70,3542.99,3152.99,3576.96,600.09,606.20,0.45,0000 0000 0000 0000 000000
2016-10-20 11:52:10,0.01,0.00,0.00,21.05,26.74,30.06,14.92,47.03,1027.36,2033.85,3542.96,3152.99,3576.92,600.14,606.47,0.50,0000 0000 0000 0000 000000
2016-10-20 11:57:12,0.01,0.00,0.00,21.02,26.72,30.04,14.88,47.18,1027.36,2033.95,3542.74,3152.99,3576.98,599.91,606.30,0.55,0000 0000 0000 0000 000000
2016-10-20 12:02:13,0.00,0.00,0.00,21.00,26.70,29.99,14.91,47.15,1027.36,2033.99,3542.55,3152.99,3576.99,600.45,606.71,0.60,0000 0000 0000 0000 000000
2016-10-20 12:07:14,0.00,0.00,0.00,20.97,26.67,29.95,14.84,47.21,1027.36,2033.99,3542.41,3153.00,3576.99,600.19,606.62,0.65,0000 0000 0000 0000 000000
2016-10-20 12:12:15,0.00,0.00,0.00,20.96,26.65,29.90,14.88,47.29,1027.36,2034.00,3542.06,3153.00,3576.98,600.34,606.90,0.70,0000 0000 0000 0000 000000
2016-10-20 12:17:16,0.00,0.00,0.00,20.96,26.63,29.82,14.84,47.20,1027.36,2034.01,3542.05,3153.01,3576.98,599.98,606.50,0.75,0000 0000 0000 0000 000000
2016-10-20 12:22:17,0.00,0.00,0.00,20.92,26.61,29.90,14.87,47.30,1027.35,2034.02,3542.04,3153.01,3576.98,600.07,606.65,0.80,0000 0000 0000 0000 000000
2016-10-20 12:27:18,0.01,0.00,0.00,20.94,26.60,29.94,14.83,47.34,1027.33,2034.07,3542.04,3153.04,3576.98,600.04,606.52,0.85,0000 0000 0000 0000 000000
2016-10-20 12:32:20,0.01,0.00,0.00,20.94,26.57,29.96,14.92,47.35,1027.35,2034.20,3542.01,3153.05,3576.96,599.85,606.42,0.90,0000 0000 0000 0000 000000
2016-10-20 12:37:21,0.02,0.00,0.00,20.96,26.56,29.98,14.80,47.33,1027.32,2034.42,3542.02,3153.09,3576.97,599.70,606.15,0.95,0000 0000 0000 0000 000000
2016-10-20 12:42:22,0.03,0.00,0.00,20.95,26.54,30.01,14.91,47.28,1027.29,2034.64,3542.00,3153.06,3576.96,600.02,606.37,1.00,0000 0000 0000 0000 000000
2016-10-20 12:47:24,0.01,0.01,0.00,20.90,26.52,30.00,14.82,47.47,1027.29,2034.91,3542.00,3153.14,3576.94,600.06,606.72,1.05,0000 0000 0000 0000 000000
2016-10-20 12:52:25,0.00,0.01,0.00,20.81,26.50,29.92,14.87,47.27,1027.31,2034.97,3541.99,3153.16,3576.95,599.99,606.75,1.10,0000 0000 0000 0000 000000
2016-10-20 12:57:26,-0.00,0.01,0.00,20.84,26.49,29.93,14.90,47.38,1027.29,2034.99,3541.99,3153.46,3576.98,600.11,606.82,1.15,0000 0000 0000 0000 000000